Flag for Greece Weather past 2 weeks in Kalamaria, Greece

Now
52 °F

Snow. Fog.


Feels Like: 49 °F
Forecast: 42 / 55 °F
Wind: 8 mph from Southeast

Location: Thessaloniki Airport

Current Time: Feb 1, 2015 at 11:30:30 AM

Latest Report: Feb 1, 2015 at 10:50 AM


Visibility: 4 mi

Pressure: 29.21 "Hg

Humidity: 88%

Dew point: 48 °F

Location of KalamariaLocation

Historic Weather in Kalamaria — Graph

°F

Kalamaria temperature yesterday

Maximum temperature yesterday: 59 °F (at 12:20 AM)
Minimum temperature yesterday: 46 °F (at 10:20 PM)
Average temperature yesterday: 52 °F

Past Weeks' High & Low Weather Summary

 TemperatureHumidityPressure
High93 °F (Jan 21, 11:50 AM)100% (Jan 21, 2:50 AM)30.33 "Hg (Jan 21, 2:50 AM)
Low37 °F (Jan 17, 8:20 AM)24% (Jan 21, 11:50 AM)29.15 "Hg (Feb 1, 7:50 AM)
Average49 °F84%29.86 "Hg
* Reported Jan 17 8:20 AM — Feb 1 8:50 AM, Kalamaria, Weather by CustomWeather, © 2014

Note: Actual official high and low records may vary slightly from our data, if they occured in-between our weather recording intervals... More about our weather records

Advertising

Kalamaria weather history for previous 24 hours

 ConditionsComfort  
Time TempWeatherWind HumidityBarometerVisibility
8:50 AM
Feb 1
46 °FFog.5 mph93%29.18 "Hg1 mi
7:50 AM46 °FScattered clouds.6 mph87%29.15 "HgN/A
2:50 AM46 °FPassing clouds.5 mph93%29.21 "HgN/A
2:20 AM46 °FPassing clouds.3 mph93%29.21 "HgN/A
1:50 AM46 °FPassing clouds.2 mph93%29.24 "HgN/A
1:20 AM46 °FPassing clouds.3 mph93%29.24 "HgN/A
12:50 AM46 °FPassing clouds.2 mph93%29.24 "HgN/A
12:20 AM46 °FLight rain. Mostly cloudy.6 mph93%29.24 "HgN/A
11:50 PM
Jan 31
46 °FLight rain. Mostly cloudy.8 mph93%29.24 "HgN/A
11:20 PM46 °FMostly cloudy.7 mph93%29.27 "HgN/A
10:20 PM46 °FMostly cloudy.6 mph93%29.24 "HgN/A
9:50 PM48 °FMostly cloudy.10 mph87%29.27 "HgN/A
9:20 PM48 °FMostly cloudy.13 mph87%29.27 "HgN/A
8:50 PM48 °FMostly cloudy.7 mph87%29.27 "HgN/A
8:20 PM48 °FMostly cloudy.8 mph94%29.27 "HgN/A
7:50 PM48 °FMostly cloudy.3 mph94%29.27 "HgN/A
7:20 PM48 °FLight rain. Mostly cloudy.7 mph94%29.27 "Hg5 mi
6:50 PM48 °FLight rain. Mostly cloudy.7 mph94%29.27 "Hg5 mi
6:20 PM48 °FRain. Mostly cloudy.7 mph94%29.27 "Hg4 mi
5:50 PM48 °FLight rain. Mostly cloudy.6 mph87%29.27 "Hg4 mi
4:50 PM48 °FRain. Mostly cloudy.8 mph87%29.30 "Hg4 mi
4:20 PM50 °FRain. Mostly cloudy.6 mph82%29.30 "Hg4 mi
3:50 PM50 °FLight rain. Mostly cloudy.5 mph82%29.33 "Hg6 mi
3:20 PM52 °FLight rain. Mostly cloudy.3 mph72%29.33 "Hg6 mi
2:50 PM52 °FLight rain. Mostly cloudy.5 mph72%29.33 "Hg6 mi
2:20 PM52 °FLight rain. Mostly cloudy.5 mph82%29.33 "Hg6 mi
1:50 PM54 °FLight rain. Mostly cloudy.3 mph77%29.36 "Hg6 mi
1:20 PM54 °FLight rain. Mostly cloudy.3 mph77%29.36 "HgN/A
12:50 PM54 °FLight rain. Mostly cloudy.3 mph72%29.36 "HgN/A
12:20 PM54 °FLight rain. Broken clouds.5 mph72%29.36 "HgN/A
11:50 AM54 °FPartly sunny.6 mph72%29.36 "HgN/A
11:20 AM54 °FBroken clouds.5 mph72%29.36 "HgN/A
Weather by CustomWeather, © 2014

See weather overviewHow to use our weather pages